DW8569 Weather Reports


Display with metric or nautical units.
time (UTC)temp
F
wind
direction
speed
MPH
gust
MPH
rain 1hr
in
rain 24hr
in
rain mn
in
humidity
%
barometer
mb
20190325161603 49 292 0.0 4.0 0.00 0.00 0.00 50 1018.1
20190325160106 49 293 1.0 4.0 0.00 0.00 0.00 50 1018.1
20190325154545 50 285 0.0 4.0 0.00 0.00 0.00 50 1018.0
20190325153106 49 306 0.0 4.0 0.00 0.00 0.00 51 1018.0
20190325151551 49 288 0.0 4.0 0.00 0.00 0.00 50 1018.1
20190325150052 50 304 0.0 2.0 0.00 0.00 0.00 50 1018.2
20190325144532 50 309 0.0 4.0 0.00 0.00 0.00 50 1018.0
20190325143100 50 277 0.0 3.0 0.00 0.00 0.00 48 1017.8
20190325141536 50 274 0.0 3.0 0.00 0.00 0.00 46 1017.7
20190325140053 51 300 0.0 6.0 0.00 0.00 0.00 45 1017.3
20190325134533 51 316 0.0 4.0 0.00 0.00 0.00 44 1017.3
20190325133044 52 309 0.0 4.0 0.00 0.00 0.00 44 1017.1
20190325131525 53 275 0.0 3.0 0.00 0.00 0.00 44 1017.0
20190325130054 52 275 0.0 3.0 0.00 0.00 0.00 44 1016.6
20190325124551 51 275 0.0 2.0 0.00 0.00 0.00 45 1016.5
20190325123047 51 275 0.0 1.0 0.00 0.00 0.00 46 1016.4
20190325121518 50 275 0.0 2.0 0.00 0.00 0.00 46 1016.3
20190325120015 50 274 0.0 0.0 0.00 0.00 0.00 45 1016.3
20190325114517 50 274 0.0 0.0 0.00 0.00 0.00 45 1016.4
20190325113004 50 275 0.0 3.0 0.00 0.00 0.00 45 1016.3
20190325111509 50 275 0.0 2.0 0.00 0.00 0.00 44 1016.0
20190325110211 50 275 0.0 2.0 0.00 0.00 0.00 43 1016.0
20190325104644 50 275 0.0 1.0 0.00 0.00 0.00 44 1015.6
20190325103204 50 275 0.0 2.0 0.00 0.00 0.00 48 1015.5
20190325101620 50 275 0.0 0.0 0.00 0.00 0.00 48 1015.4
20190325100127 51 275 0.0 1.0 0.00 0.00 0.00 47 1015.1
20190325094642 51 275 0.0 1.0 0.00 0.00 0.00 44 1015.0
20190325093144 51 275 0.0 2.0 0.00 0.00 0.00 43 1015.3
20190325091628 51 276 1.0 4.0 0.00 0.00 0.00 43 1015.4
20190325090221 51 276 0.0 3.0 0.00 0.00 0.00 44 1015.6
20190325084623 51 277 1.0 4.0 0.00 0.00 0.00 43 1015.4
20190325083146 51 278 0.0 3.0 0.00 0.00 0.00 43 1015.5
20190325081630 52 267 0.0 5.0 0.00 0.00 0.00 43 1015.4
20190325080107 52 277 1.0 9.0 0.00 0.00 0.00 42 1015.6
20190325074636 52 267 2.0 5.0 0.00 0.00 0.00 42 1015.7
20190325073136 52 232 0.0 3.0 0.00 0.00 0.00 43 1015.9
20190325071633 52 231 0.0 3.0 0.00 0.00 0.00 43 1016.2
20190325070129 52 231 0.0 5.0 0.00 0.00 0.00 42 1016.4
20190325064604 52 238 0.0 4.0 0.00 0.00 0.00 42 1016.6
20190325063133 52 246 0.0 2.0 0.00 0.00 0.00 42 1016.6
20190325061649 52 246 0.0 5.0 0.00 0.00 0.00 41 1016.6
20190325060101 52 246 1.0 4.0 0.00 0.00 0.00 41 1016.5
20190325054611 52 236 0.0 3.0 0.00 0.00 0.00 40 1016.8
20190325053048 53 236 0.0 4.0 0.00 0.00 0.00 39 1017.0
20190325051619 53 254 0.0 0.0 0.00 0.00 0.00 38 1016.2
20190325050129 53 254 0.0 4.0 0.00 0.00 0.00 37 1017.0
20190325044616 54 282 0.0 4.0 0.00 0.00 0.00 37 1017.2
20190325043057 54 288 0.0 5.0 0.00 0.00 0.00 36 1017.3
20190325041553 53 251 0.0 3.0 0.00 0.00 0.00 36 1017.2
20190325040035 53 254 0.0 3.0 0.00 0.00 0.00 36 1017.3
20190325034552 54 257 0.0 5.0 0.00 0.00 0.00 36 1017.2
20190325033109 54 234 0.0 4.0 0.00 0.00 0.00 36 1017.3
20190325031615 54 241 1.0 7.0 0.00 0.00 0.00 35 1017.2
20190325030041 54 232 1.0 5.0 0.00 0.00 0.00 34 1017.1
20190325024532 55 239 0.0 4.0 0.00 0.00 0.00 33 1017.3
20190325023034 55 225 1.0 6.0 0.00 0.00 0.00 33 1017.4
20190325021532 55 227 0.0 6.0 0.00 0.00 0.00 32 1017.4
20190325020048 55 236 0.0 7.0 0.00 0.00 0.00 32 1017.3
20190325014526 55 247 0.0 8.0 0.00 0.00 0.00 31 1017.4
20190325013023 55 236 1.0 4.0 0.00 0.00 0.00 31 1017.3
20190325011531 56 242 2.0 9.0 0.00 0.00 0.00 31 1017.4
20190325010105 56 226 2.0 8.0 0.00 0.00 0.00 30 1017.3
20190325004521 56 233 1.0 6.0 0.00 0.00 0.00 30 1016.7
20190325003031 56 278 2.0 4.0 0.00 0.00 0.00 30 1016.7
20190325001541 56 258 1.0 6.0 0.00 0.00 0.00 31 1016.7
20190325000031 57 229 2.0 7.0 0.00 0.00 0.00 31 1016.6
20190324234600 57 232 1.0 7.0 0.00 0.00 0.00 31 1016.7
20190324233018 57 226 2.0 6.0 0.00 0.00 0.00 30 1016.7
20190324231518 58 237 1.0 5.0 0.00 0.00 0.00 28 1016.7
20190324230014 58 238 0.0 7.0 0.00 0.00 0.00 27 1016.6
20190324224540 59 250 1.0 6.0 0.00 0.00 0.00 26 1016.5
20190324223028 59 258 1.0 8.0 0.00 0.00 0.00 25 1016.6
20190324221523 59 210 2.0 11.0 0.00 0.00 0.00 24 1016.6
20190324220015 59 290 2.0 10.0 0.00 0.00 0.00 25 1016.3
20190324214538 59 225 2.0 14.0 0.00 0.00 0.00 25 1016.0
20190324213012 60 250 3.0 13.0 0.00 0.00 0.00 25 1015.9
20190324211514 60 242 5.0 13.0 0.00 0.00 0.00 24 1016.1
20190324210008 60 238 4.0 13.0 0.00 0.00 0.00 24 1016.2
20190324204512 60 200 3.0 10.0 0.00 0.00 0.00 24 1016.3
20190324203032 61 254 2.0 7.0 0.00 0.00 0.00 23 1016.3
20190324201504 60 246 2.0 11.0 0.00 0.00 0.00 23 1016.6
20190324194723 60 225 2.0 10.0 0.00 0.00 0.00 25 1017.1
20190324193141 59 223 2.0 9.0 0.00 0.00 0.00 26 1017.4
20190324191652 60 225 3.0 10.0 0.00 0.00 0.00 26 1017.9
20190324190129 60 235 1.0 9.0 0.00 0.00 0.00 25 1018.2
20190324184612 59 230 2.0 12.0 0.00 0.00 0.00 23 1018.6
20190324183111 59 181 4.0 11.0 0.00 0.00 0.00 22 1018.9
20190324181658 59 230 2.0 9.0 0.00 0.00 0.00 23 1019.1
20190324180137 58 276 4.0 16.0 0.00 0.00 0.00 22 1019.5
20190324174608 58 267 3.0 10.0 0.00 0.00 0.00 22 1019.7
20190324173058 57 275 2.0 14.0 0.00 0.00 0.00 22 1019.9
20190324171557 55 297 3.0 10.0 0.00 0.00 0.00 22 1020.1
20190324170125 55 294 4.0 10.0 0.00 0.00 0.00 22 1020.5
20190324164601 55 299 1.0 7.0 0.00 0.00 0.00 24 1020.8
20190324163101 54 279 1.0 8.0 0.00 0.00 0.00 24 1020.9